TimeCDT,TemperatureF,Dew PointF,Humidity,Sea Level PressureIn,VisibilityMPH,Wind Direction,Wind SpeedMPH,Gust SpeedMPH,PrecipitationIn,Events,Conditions,WindDirDegrees,DateUTC
12:15 AM,57.2,39.2,51,30.04,10.0,South,17.3,24.2,N/A,,Clear,190,2011-11-02 05:15:00
12:35 AM,57.2,39.2,51,30.05,10.0,South,16.1,-,N/A,,Clear,190,2011-11-02 05:35:00
12:55 AM,57.2,39.2,51,30.04,10.0,South,16.1,-,N/A,,Clear,190,2011-11-02 05:55:00
1:15 AM,57.2,39.2,51,30.05,10.0,South,16.1,-,N/A,,Clear,190,2011-11-02 06:15:00
1:35 AM,55.4,39.2,54,30.05,10.0,South,13.8,19.6,N/A,,Clear,190,2011-11-02 06:35:00
1:55 AM,55.4,39.2,54,30.05,10.0,South,13.8,-,N/A,,Clear,190,2011-11-02 06:55:00
2:15 AM,53.6,39.2,58,30.05,10.0,South,11.5,-,N/A,,Clear,180,2011-11-02 07:15:00
2:35 AM,53.6,39.2,58,30.05,10.0,South,13.8,-,N/A,,Clear,190,2011-11-02 07:35:00
2:55 AM,53.6,39.2,58,30.05,10.0,South,12.7,-,N/A,,Clear,180,2011-11-02 07:55:00
3:15 AM,53.6,39.2,58,30.04,10.0,South,13.8,-,N/A,,Clear,190,2011-11-02 08:15:00
3:35 AM,55.4,39.2,54,30.04,10.0,South,12.7,18.4,N/A,,Clear,190,2011-11-02 08:35:00
3:55 AM,55.4,39.2,54,30.04,10.0,SSW,17.3,-,N/A,,Clear,200,2011-11-02 08:55:00
4:55 AM,53.6,39.2,58,30.05,10.0,South,13.8,-,N/A,,Clear,190,2011-11-02 09:55:00
5:55 AM,51.8,37.4,58,30.04,10.0,South,13.8,-,N/A,,Clear,190,2011-11-02 10:55:00
6:15 AM,51.8,37.4,58,30.04,10.0,South,13.8,-,N/A,,Clear,190,2011-11-02 11:15:00
6:35 AM,53.6,39.2,58,30.04,10.0,South,11.5,-,N/A,,Mostly Cloudy,180,2011-11-02 11:35:00
6:55 AM,53.6,39.2,58,30.04,10.0,South,11.5,-,N/A,,Overcast,180,2011-11-02 11:55:00
7:15 AM,53.6,39.2,58,30.04,10.0,South,12.7,-,N/A,Thunderstorm,Overcast,180,2011-11-02 12:15:00
7:35 AM,53.6,39.2,58,30.04,10.0,South,13.8,-,N/A,,Overcast,190,2011-11-02 12:35:00
7:55 AM,53.6,39.2,58,30.05,10.0,South,10.4,-,N/A,,Overcast,190,2011-11-02 12:55:00
8:15 AM,55.4,39.2,54,30.05,10.0,South,10.4,-,N/A,,Overcast,190,2011-11-02 13:15:00
8:35 AM,55.4,39.2,54,30.05,10.0,SSW,12.7,-,N/A,,Mostly Cloudy,200,2011-11-02 13:35:00
8:55 AM,55.4,39.2,54,30.06,10.0,South,10.4,-,N/A,,Mostly Cloudy,190,2011-11-02 13:55:00
9:15 AM,57.2,41.0,55,30.05,10.0,South,8.1,-,N/A,,Mostly Cloudy,190,2011-11-02 14:15:00
9:35 AM,59.0,41.0,51,30.05,10.0,South,8.1,-,N/A,,Scattered Clouds,190,2011-11-02 14:35:00
9:55 AM,59.0,41.0,51,30.05,10.0,South,10.4,-,N/A,,Clear,190,2011-11-02 14:55:00
10:15 AM,62.6,41.0,45,30.04,10.0,SSW,9.2,-,N/A,,Clear,210,2011-11-02 15:15:00
10:35 AM,62.6,41.0,45,30.04,10.0,SW,11.5,-,N/A,,Clear,220,2011-11-02 15:35:00
10:55 AM,64.4,41.0,42,30.03,10.0,SW,15.0,-,N/A,,Clear,220,2011-11-02 15:55:00
11:15 AM,66.2,41.0,40,30.03,10.0,SW,16.1,21.9,N/A,,Clear,220,2011-11-02 16:15:00
11:35 AM,64.4,41.0,42,30.02,10.0,SW,11.5,17.3,N/A,,Clear,230,2011-11-02 16:35:00
11:55 AM,64.4,42.8,45,30.02,10.0,SSW,13.8,-,N/A,,Mostly Cloudy,210,2011-11-02 16:55:00
12:15 PM,64.4,42.8,45,30.00,10.0,SSW,10.4,-,N/A,,Mostly Cloudy,200,2011-11-02 17:15:00
12:35 PM,66.2,42.8,43,30.00,10.0,SSW,11.5,-,N/A,,Scattered Clouds,200,2011-11-02 17:35:00
12:55 PM,66.2,42.8,43,29.99,10.0,SSW,10.4,-,N/A,,Scattered Clouds,210,2011-11-02 17:55:00
1:15 PM,66.2,41.0,40,29.97,10.0,SSW,13.8,-,N/A,,Scattered Clouds,210,2011-11-02 18:15:00
1:35 PM,68.0,42.8,40,29.97,10.0,SSW,5.8,-,N/A,,Scattered Clouds,210,2011-11-02 18:35:00
1:55 PM,68.0,42.8,40,29.96,10.0,SW,8.1,-,N/A,,Clear,230,2011-11-02 18:55:00
2:15 PM,68.0,42.8,40,29.95,10.0,SSW,12.7,-,N/A,,Scattered Clouds,210,2011-11-02 19:15:00
2:35 PM,68.0,42.8,40,29.96,10.0,SW,9.2,-,N/A,,Scattered Clouds,230,2011-11-02 19:35:00
2:55 PM,68.0,42.8,40,29.96,10.0,South,10.4,-,N/A,,Scattered Clouds,190,2011-11-02 19:55:00
3:15 PM,68.0,42.8,40,29.96,10.0,SSW,11.5,-,N/A,,Scattered Clouds,210,2011-11-02 20:15:00
3:35 PM,69.8,42.8,38,29.95,10.0,South,5.8,-,N/A,,Clear,190,2011-11-02 20:35:00
3:55 PM,69.8,42.8,38,29.94,10.0,SSW,8.1,-,N/A,,Clear,210,2011-11-02 20:55:00
4:15 PM,69.8,42.8,38,29.93,10.0,SSW,6.9,-,N/A,,Clear,200,2011-11-02 21:15:00
4:35 PM,69.8,44.6,40,29.93,10.0,SW,5.8,-,N/A,,Clear,230,2011-11-02 21:35:00
4:55 PM,68.0,44.6,43,29.93,10.0,SW,8.1,-,N/A,,Clear,230,2011-11-02 21:55:00
5:15 PM,66.2,46.4,49,29.94,10.0,West,6.9,-,N/A,,Scattered Clouds,260,2011-11-02 22:15:00
5:35 PM,64.4,46.4,52,29.94,10.0,West,4.6,-,N/A,,Mostly Cloudy,280,2011-11-02 22:35:00
5:55 PM,64.4,44.6,49,29.95,10.0,NW,13.8,-,N/A,,Overcast,310,2011-11-02 22:55:00
6:15 PM,60.8,46.4,59,29.97,10.0,NNW,19.6,-,N/A,,Mostly Cloudy,340,2011-11-02 23:15:00
6:35 PM,55.4,48.2,77,29.98,10.0,North,17.3,25.3,N/A,,Mostly Cloudy,360,2011-11-02 23:35:00
6:55 PM,53.6,48.2,82,29.98,7.0,North,19.6,23.0,N/A,,Overcast,10,2011-11-02 23:55:00
7:15 PM,53.6,46.4,77,29.99,7.0,North,16.1,21.9,N/A,,Overcast,10,2011-11-03 00:15:00
7:35 PM,53.6,46.4,77,30.00,10.0,North,11.5,21.9,N/A,,Mostly Cloudy,10,2011-11-03 00:35:00
7:55 PM,53.6,46.4,77,30.00,10.0,North,13.8,19.6,N/A,,Overcast,10,2011-11-03 00:55:00
8:15 PM,51.8,46.4,82,29.99,10.0,NNE,17.3,21.9,N/A,,Overcast,20,2011-11-03 01:15:00
8:35 PM,51.8,46.4,82,30.00,10.0,NNE,10.4,-,N/A,,Mostly Cloudy,30,2011-11-03 01:35:00
8:55 PM,51.8,46.4,82,29.99,10.0,NNE,15.0,-,N/A,,Overcast,20,2011-11-03 01:55:00
9:15 PM,51.8,46.4,82,29.98,10.0,NE,15.0,-,N/A,,Overcast,40,2011-11-03 02:15:00
9:35 PM,51.8,46.4,82,29.99,10.0,NNE,15.0,-,N/A,,Overcast,30,2011-11-03 02:35:00
9:55 PM,51.8,46.4,82,29.98,10.0,NE,15.0,-,N/A,,Overcast,40,2011-11-03 02:55:00
10:15 PM,51.8,46.4,82,29.98,10.0,NNE,13.8,18.4,N/A,,Overcast,30,2011-11-03 03:15:00
10:35 PM,51.8,48.2,88,29.97,10.0,NNE,15.0,-,N/A,,Overcast,30,2011-11-03 03:35:00
10:55 PM,51.8,48.2,88,29.98,10.0,NNE,15.0,19.6,N/A,,Overcast,30,2011-11-03 03:55:00
11:15 PM,51.8,48.2,88,29.98,10.0,NNE,13.8,-,N/A,,Overcast,30,2011-11-03 04:15:00
11:35 PM,51.8,46.4,82,29.99,10.0,NNE,18.4,25.3,N/A,,Overcast,30,2011-11-03 04:35:00
11:55 PM,51.8,46.4,82,30.00,10.0,NNE,19.6,-,N/A,,Overcast,20,2011-11-03 04:55:00